map of TSE home
Great Circle Mapper logo
TSE - Airport
Location
City:  Astana, Kazakhstan
Name:Astana International Airport
ICAO / IATA:UACC / TSE

Details
Type:Airport (Aerodrome, Airfield)
Use:Public/Civil, International (customs port of entry)
Latitude:5101'20"N (51.022222)
Longitude:7128'01"E (71.466944)
Datum:WGS 1984
Elevation:1165 ft (355 m)
Variation:9.73E (WMM2015 magnetic declination)
0.05 annual change
Runways:1
Longest:11484 × 147 ft (3500 × 45 m), paved

Time
Time Zone:UTC+6
Local Time:

Weather
METAR:UACC 012330Z 06002MPS CAVOK 10/05 Q1009 R04/0/0070 NOSIG RMK QFE725/0967
TAF:UACC 012300Z 0200/0224 04006MPS 9999 SCT033 BKN100 TX19/0210Z TN08/0223Z
TEMPO 0206/0212 09006MPS
TEMPO 0212/0224 -SHRA BKN030CB

Related Locations
Nearby:
Farthest:PNT: 10894 mi / 17532 km
Puerto Natales [Teniente Julio Gallardo], MA, CL

Find:

   beyond  
but within

Other Information
Maps:
NOTAMs:
Links:
Sources:

  
flag of Kazakhstan   

Sectional Chart

Flight Planning
at skyvector.com

Satellite Image

Google Maps Satellite view

 

Copyright © 2004-2015 Karl L. Swartz. All rights reserved.
The Great Circle Mapper name and logo are trademarks of the Great Circle Mapper.
All other trademarks mentioned herein belong to their respective owners.
Please see credits for attibutions and further copyright information.

  Follow gcmap on Facebook Follow gcmap on Twitter Follow gcmap on Google+

hCard Microformat

Geo Microformat